Weather History for Houma, LA

Change the Weather History Date:

Saturday, April 27, 2013

  Actual Average Record
Temperature  
Mean Temperature 72 °F -  
Max Temperature 80 °F 80 °F 88 °F (1944)
Min Temperature 64 °F 61 °F 48 °F (1952)
Cooling Degree Days 7    
Growing Degree Days 22 (Base 50)    
Moisture  
Dew Point 67 °F    
Average Humidity 85    
Maximum Humidity 94    
Minimum Humidity 65    
Precipitation  
Precipitation 0.00 in - - ()
Sea Level Pressure  
Sea Level Pressure 30.11 in    
Wind  
Wind Speed 4 mph (SE)    
Max Wind Speed 12 mph    
Max Gust Speed -    
Visibility 5 miles    
Events Fog    
Averages and records for this station are not official NWS values.
T = Trace of Precipitation, MM = Missing Value Source: NWS Daily Summary

Daily Weather History Graph

Daily Weather History Graph

Search for Another Location

Airport:

Trip Planner

Search our weather history database for the weather conditions in past years. The results will help you decide how hot, cold, wet, or windy it might be!

Date:

Astronomy

Apr. 27, 2013 Rise Set
Actual Time 6:23 AM CDT 7:37 PM CDT
Civil Twilight 5:58 AM CDT 8:02 PM CDT
Nautical Twilight 5:29 AM CDT 8:31 PM CDT
Astronomical Twilight 4:58 AM CDT 9:02 PM CDT
Moon 9:58 PM CDT 7:49 AM CDT
Length of Visible Light 14h 03m
Length of Day
13h 13m
Waning Gibbous, 95% of the Moon is Illuminated
Apr 27
Waning Gibbous
May 2
Last Quarter
May 9
New
May 17
First Quarter
May 24
Full

Hourly Weather History & Observations

Time (CDT) Temp. Heat Index Dew Point Humidity Pressure Visibility Wind Dir Wind Speed Gust Speed Precip Events Conditions
12:15 AM 64.4 °F - 61.9 °F 92% 30.19 in 4.0 mi East 3.5 mph - N/A   Clear
12:35 AM 65.3 °F - 63.1 °F 93% 30.19 in 1.8 mi Calm Calm - N/A   Mist
12:55 AM 64.6 °F - 62.6 °F 93% 30.18 in 1.8 mi Calm Calm - N/A   Mostly Cloudy
1:15 AM 64.6 °F - 62.6 °F 93% 30.17 in 0.5 mi Calm Calm - N/A Fog Fog
1:35 AM 65.5 °F - 63.5 °F 93% 30.17 in 2.0 mi Calm Calm - N/A   Overcast
1:55 AM 66.0 °F - 63.9 °F 93% 30.16 in 4.0 mi Calm Calm - N/A   Overcast
2:15 AM 67.3 °F - 65.3 °F 93% 30.16 in 1.8 mi Calm Calm - N/A   Overcast
2:35 AM 68.2 °F - 66.2 °F 93% 30.15 in 1.5 mi Calm Calm - N/A   Overcast
2:55 AM 68.9 °F - 66.7 °F 93% 30.14 in 3.0 mi Calm Calm - N/A   Overcast
3:15 AM 68.5 °F - 66.4 °F 93% 30.12 in 3.0 mi SE 3.5 mph - N/A   Overcast
3:35 AM 70.0 °F - 67.8 °F 93% 30.10 in 4.0 mi SE 11.5 mph - N/A   Overcast
3:55 AM 70.7 °F - 68.4 °F 92% 30.11 in 5.0 mi SE 4.6 mph - N/A   Overcast
4:15 AM 70.7 °F - 68.2 °F 92% 30.10 in 4.0 mi SE 5.8 mph - N/A   Overcast
4:35 AM 70.7 °F - 68.4 °F 92% 30.10 in 4.0 mi SE 4.6 mph - N/A   Overcast
4:55 AM 70.2 °F - 67.6 °F 92% 30.10 in 3.0 mi Calm Calm - N/A   Overcast
5:15 AM 69.6 °F - 67.1 °F 92% 30.10 in 3.0 mi East 3.5 mph - N/A   Overcast
5:50 AM 69.8 °F - 68.0 °F 94% 30.11 in 5.0 mi ESE 5.8 mph - N/A   Overcast
6:50 AM 69.8 °F - 68.0 °F 94% 30.13 in 5.0 mi ESE 5.8 mph - N/A   Mostly Cloudy
7:50 AM 71.6 °F - 69.8 °F 94% 30.16 in 4.0 mi NE 6.9 mph - N/A   Mostly Cloudy
8:13 AM 73.4 °F - 69.8 °F 88% 30.17 in 4.0 mi NE 6.9 mph - N/A   Mostly Cloudy
8:50 AM 73.4 °F - 69.8 °F 88% 30.17 in 5.0 mi ENE 9.2 mph - N/A   Mostly Cloudy
9:55 AM 75.2 °F - 68.0 °F 78% 30.17 in 6.0 mi ESE 9.2 mph - N/A   Mostly Cloudy
10:55 AM 78.8 °F - 68.0 °F 69% 30.17 in 7.0 mi SSE 9.2 mph - N/A   Mostly Cloudy
11:50 AM 78.8 °F - 68.0 °F 69% 30.17 in 7.0 mi South 11.5 mph - N/A   Mostly Cloudy
12:50 PM 80.6 °F 83.2 °F 68.0 °F 65% 30.16 in 7.0 mi South 11.5 mph - N/A   Mostly Cloudy
1:50 PM 80.6 °F 83.2 °F 68.0 °F 65% 30.15 in 7.0 mi SE 11.5 mph - N/A   Scattered Clouds
2:50 PM 80.6 °F 83.2 °F 68.0 °F 65% 30.13 in 7.0 mi SE 9.2 mph - N/A   Scattered Clouds
3:50 PM 78.8 °F - 66.2 °F 65% 30.11 in 7.0 mi SE 9.2 mph - N/A   Scattered Clouds
6:50 PM 75.2 °F - 66.2 °F 73% 30.06 in 7.0 mi SSE 5.8 mph - N/A   Partly Cloudy
7:15 PM 73.8 °F - 66.6 °F 78% 30.06 in 7.0 mi Calm Calm - N/A   Scattered Clouds
7:35 PM 73.6 °F - 66.9 °F 80% 30.06 in 7.0 mi SSE 3.5 mph - N/A   Mostly Cloudy
7:55 PM 72.1 °F - 66.9 °F 84% 30.06 in 10.0 mi SSE 5.8 mph - N/A   Scattered Clouds
8:15 PM 72.1 °F - 67.3 °F 85% 30.05 in 7.0 mi SSE 6.9 mph - N/A   Clear
8:35 PM 72.5 °F - 67.6 °F 85% 30.05 in 7.0 mi SSE 5.8 mph - N/A   Clear
8:55 PM 72.5 °F - 67.5 °F 84% 30.06 in 10.0 mi SSE 6.9 mph - N/A   Clear
9:15 PM 72.9 °F - 67.6 °F 84% 30.06 in 7.0 mi SSE 4.6 mph - N/A   Clear
9:35 PM 72.5 °F - 67.8 °F 85% 30.06 in 7.0 mi SSE 6.9 mph - N/A   Scattered Clouds
9:55 PM 73.4 °F - 68.5 °F 85% 30.06 in 7.0 mi SSE 10.4 mph - N/A   Mostly Cloudy
10:15 PM 73.2 °F - 68.4 °F 85% 30.06 in 7.0 mi SE 6.9 mph - N/A   Mostly Cloudy
10:35 PM 72.9 °F - 68.4 °F 86% 30.06 in 7.0 mi SE 8.1 mph - N/A   Scattered Clouds
10:55 PM 72.9 °F - 68.5 °F 86% 30.07 in 7.0 mi SSE 6.9 mph - N/A   Scattered Clouds
11:15 PM 73.0 °F - 68.9 °F 87% 30.07 in 7.0 mi SE 8.1 mph - N/A   Mostly Cloudy
11:35 PM 73.4 °F - 68.9 °F 86% 30.07 in 7.0 mi SSE 6.9 mph - N/A   Overcast
11:55 PM 73.2 °F - 68.7 °F 86% 30.06 in 7.0 mi SE 6.9 mph - N/A   Overcast